Location: Pedimozza
(42.0500°N, 9.3500°E)
Time: 19:34:35
(UTC+00:00)

USA 245 - Pass Details

Date: 19 August 2019
Orbit: 266 x 999 km, 97.9° (Epoch: 04 October)

Event Time Altitude Azimuth Distance (km) Brightness Sun altitude
Exits shadow 20:41:57 62° 194° (SSW) 757 3.7 -23.5°
Maximum altitude 20:42:39 77° 258° (WSW) 711 3.8 -23.6°
Drops below altitude 10° 20:47:57 10° 345° (NNW) 2,397 7.4 -24.3°
Sets 20:50:34 0° 347° (NNW) 3,442 8.3 -24.7°
